Find Local Weather

World > North America > United States > Indiana

Greensburg, Indiana Regional Weather

Lat: 39.34N, Lon: 85.48W
Wx Zone: INZ065
Warning FLW WEATHER ALERT - (More Info. Click Here) Warning
Feedback
Expires:201809192100;;896766
ASUS43 KIND 192009
RWRIN 

WEATHER ROUNDUP FOR INDIANA
NATIONAL WEATHER SERVICE INDIANAPOLIS IN
400 PM EDT WED SEP 19 2018

NOTE: "FAIR" INDICATES FEW OR NO CLOUDS BELOW 12,000 FEET WITH NO
SIGNIFICANT WEATHER AND/OR OBSTRUCTIONS TO VISIBILITY.

* - STATION DOES NOT REPORT WEATHER SUCH AS PRECIPITATION OR FOG.

+ - STATION NOT QUALITY CONTROLLED BY THE NATIONAL WEATHER SERVICE.
    USE DATA WITH CAUTION...ESPECIALLY DEWPOINT AND RELATIVE
    HUMIDITY OBSERVATIONS.


INZ030>032-037>040-046>048-054>057-064-065-192100-
CENTRAL INDIANA
  
CITY           SKY/WX    TMP DP  RH WIND       PRES   REMARKS
ANDERSON +     SUNNY     86  70  58 CALM      30.00  HX  90           
COLUMBUS       MOSUNNY   90  64  43 SW6       29.98S HX  91           
FISHERS *+     FAIR      88  73  62 N5        29.99F HX  96           
FRANKFORT +    CLOUDY    92  65  40 CALM      30.00F HX  94           
INDIANAPOLIS   FAIR      86  69  56 W3        29.98S HX  90           
-EAGLE CREEK   FAIR      90  69  50 CALM      29.98F HX  94           
KOKOMO +       FAIR      89  66  46 CALM      30.00F HX  91           
MARION +       FAIR     N/A N/A N/A CALM      30.01S HAZE             
MT COMFORT *+  FAIR      90  73  58 S3        29.99F HX  98           
SHELBYVILLE    FAIR      90  65  43 E3        29.97F HX  92           
ZIONSVILLE +   FAIR      86  67  52 S6        30.00S                  

$$


SKY/WX - Weather  TMP - Temperature  DP - Dew Point  RH - Relative Humidity
WIND - Wind Direction/Speed PRES - Barometric Pressure